Regional Weather Roundup
Issued by NWS

Home | Current Version | Previous Version | Graphics & Text | Print | Product List | Glossary On
Versions: 1 2 3 4 5 6 7 8 9 10 11 12 13 14 15 16 17 18 19 20 21 22 23 24 25 26 27 28 29 30 31 32 33 34 35 36 37 38 39 40 41 42 43 44 45 46 47 48 49 50
000
ASUS43 KLOT 041921
RWRIL

ILLINOIS REGIONAL WEATHER ROUNDUP
NATIONAL WEATHER SERVICE CHICAGO/ROMEOVILLE IL
200 PM CDT SAT JUL 04 2015

NOTE: "FAIR" INDICATES FEW OR NO CLOUDS BELOW 12,000 FEET WITH NO
SIGNIFICANT WEATHER AND/OR OBSTRUCTIONS TO VISIBILITY.

* THESE STATIONS ARE NOT UNDER NWS QUALITY CONTROL. THEY ALSO MAY NOT
  REPORT WEATHER SUCH AS PRECIPITATION OR FOG.

ILZ001-002-007-009-015-016-024-042000-
NORTHWEST ILLINOIS

CITY           SKY/WX    TMP DP  RH WIND       PRES   REMARKS
MOLINE         SUNNY     79  59  50 SW6       30.01S HX  80
STERLING*      SUNNY     82  61  47 SW6       30.01S HX  83
SAVANNA*       SUNNY     80  58  47 S5        30.01S HX  80
$$

ILZ003-004-008-010-011-017-018-042000-
NORTH CENTRAL ILLINOIS

CITY           SKY/WX    TMP DP  RH WIND       PRES   REMARKS
ROCKFORD       MOSUNNY   80  60  50 W3        30.02S HX  81
FREEPORT*      MOSUNNY   78  62  57 SW8       30.03S
ROCHELLE*      SUNNY     77  59  52 SW5       30.02S
DE KALB*       MOSUNNY   76  60  58 W5        30.02S
PERU*          SUNNY     78  53  42 SW6       30.02F
$$

ILZ005-006-012>014-019>023-042000-
NORTHEAST ILLINOIS

CITY           SKY/WX    TMP DP  RH WIND       PRES   REMARKS
CHICAGO-OHARE  MOSUNNY   80  56  43 CALM      30.00S HX  80
CHICAGO-MIDWAY MOSUNNY   82  56  40 VRB6      29.99F HX  82
AURORA         SUNNY     80  58  46 SW7       30.02S HX  80
LANSING*       MOSUNNY   79  54  41 S5        30.01S HX  80
JOLIET*        MOSUNNY   80  61  53 CALM      30.01S HX  81
WAUKEGAN       SUNNY     76  59  55 SE9       30.00S
DUPAGE AIRPORT SUNNY     79  55  43 SW9       30.00F
KANKAKEE*      PTSUNNY   80  62  54 SW9       30.02F HX  81
WHEELING       SUNNY     79  55  43 VRB6      30.01S
MORRIS*        SUNNY     78  56  46 SW6       30.01S
ROMEOVILLE*    MOSUNNY   80  56  44 W6        30.01S HX  80
NORTHERLY ISL    N/A     70  58  65 E5          N/A
$$

LMZ740>746-042000-
SOUTHERN LAKE MICHIGAN

STATION/POSITION SKY/WX   TEMP    WIND        PRES    VSBY  WAVE
                          AIR SEA DIR/SP/G                  HT/PER
                          (F)     (DEG/KT/KT) (MB)    (MI)  (FT/S)
HARRISON CRIB              67      90/ 10/ 11   N/A
BURNHAM HARBOR             70      80/  3/  5   N/A
CALUMET HARBOR             71      70/  8/ 10   N/A
BURNS HARBOR               70      40/  5/  6 1016.9F
MICHIGAN CITY              70     360/  4/  4   N/A
MICHIGAN CITY 6N           68 66   20/  4/  4   N/A           0
ST. JOSEPH                 66 66                N/A           0
$$

ILZ025>027-034>036-040-047-049-050-058-095>099-042000-
WEST-CENTRAL ILLINOIS

CITY           SKY/WX    TMP DP  RH WIND       PRES   REMARKS
QUINCY         SUNNY     80  59  48 S7        30.02S HX  81
GALESBURG*     PTSUNNY   78  62  57 SW7       30.03S HX  80
MACOMB*        PTSUNNY   78  60  54 CALM      30.04F HX  80
JACKSONVILLE*  MOSUNNY   81  65  58 CALM      30.02F HX  82
PITTSFIELD*    MOSUNNY   80  61  51 CALM      30.03F HX  81
$$

ILZ028>032-037-038-041>044-048-051>054-059>061-042000-
CENTRAL ILLINOIS

CITY           SKY/WX    TMP DP  RH WIND       PRES   REMARKS
PONTIAC        SUNNY     79  65  61 W5        30.03S HX  81
BLOOMINGTON    MOSUNNY   79  60  51 CALM      30.04F HX  80
DECATUR        MOSUNNY   78  60  53 E5        30.03S
PEORIA         MOSUNNY   80  60  50 S7        30.02F HX  81
LACON*         SUNNY     78  58  50 S6        30.01F
LINCOLN*       PTSUNNY   80  59  48 CALM      30.02S HX  80
SPRINGFIELD    MOSUNNY   81  62  52 W3        30.03S HX  82
TAYLORVILLE    SUNNY     77  61  57 CALM      30.02F
$$

ILZ033-039-045-046-055>057-062-063-042000-
EAST-CENTRAL ILLINOIS

CITY           SKY/WX    TMP DP  RH WIND       PRES   REMARKS
CHAMPAIGN      PTSUNNY   77  60  55 SW5       30.03F
DANVILLE*      SUNNY     77  60  55 CALM      30.00S HAZE
RANTOUL*       MOSUNNY   80  62  53 W5        30.02F HX  81
MATTOON        PTSUNNY   76  61  59 CALM      30.02S
PARIS*         MOSUNNY   78  62  57 CALM      30.03F HX  80
$$

ILZ079-100>102-042000-
SOUTHWEST ILLINOIS

CITY           SKY/WX    TMP DP  RH WIND       PRES   REMARKS
BELLEVILLE     MOSUNNY   80  64  57 NE5       30.00F HX  81
CAHOKIA*       PTSUNNY   82  62  50 NE7       30.01F HX  83
SPARTA*        MOSUNNY   79  63  56 CALM      30.01F HX  81
$$

ILZ064>066-069>071-074>076-080>082-084>086-088>090-092>094-042000-
SOUTH-CENTRAL ILLINOIS

CITY           SKY/WX    TMP DP  RH WIND       PRES   REMARKS
CARBONDALE     MOSUNNY   81  65  58 E6        30.00F HX  83
CAIRO*         CLOUDY    79  66  63 NE5       30.00S HX  81
EFFINGHAM*     MOSUNNY   78  57  47 CALM      30.03S
MARION         MOSUNNY   81  66  61 N5        30.01F HX  83
MT. VERNON     MOSUNNY   82  64  54 E5        30.01F HX  84
CENTRALIA*     MOSUNNY   80  63  55 NE3       30.01F HX  81
SALEM*         SUNNY     81  61  49 CALM      30.01F HX  82
METROPOLIS*    CLOUDY    80  68  67 CALM      30.00F HX  82
$$

ILZ067-068-072-073-078-083-087-091-042000-
SOUTHEAST ILLINOIS

CITY           SKY/WX    TMP DP  RH WIND       PRES   REMARKS
LAWRENCEVILLE  PTSUNNY   80  65  59 NW6       30.01F HX  82
FLORA*         MOSUNNY   77  62  59 CALM      30.02F
FAIRFIELD*     CLOUDY    79  65  61 N3        30.00F HX  81
HARRISBURG*    PTSUNNY   80  64  58 CALM      30.01F HX  81
ROBINSON*      MOSUNNY   79  63  58 CALM      30.02S HX  80
CARMI*         PTSUNNY   81  61  51 NE3       30.00S HX  81
$$

ABBREVIATIONS USED IN REMARKS
   TC - TEMPERATURE IN CELSIUS
  WCI - WIND CHILL INDEX
   HX - HEAT INDEX
  VSB - VISIBILITY
$$




USA.gov is the U.S. government's official web portal to all federal, state and local government web resources and services.